Grafton, IL

12:57 AM CST on December 10, 2016 (GMT -0600)
Saint Charles County Smartt

Weather History for KSET - July, 2013

Change the Weather History Date:

Friday, July 5, 2013

  Actual Average (KSTL) Record (KSTL)
Temperature  
Mean Temperature 74 °F -  
Max Temperature 84 °F 87 °F 105 °F (2012)
Min Temperature 64 °F 68 °F 53 °F (1972)
Cooling Degree Days 9    
Growing Degree Days 24 (Base 50)    
Moisture  
Dew Point 65 °F    
Average Humidity 78    
Maximum Humidity 100    
Minimum Humidity 51    
Precipitation  
Precipitation 0.00 in - - ()
Sea Level Pressure  
Sea Level Pressure 30.03 in    
Wind  
Wind Speed 5 mph (ESE)    
Max Wind Speed 13 mph    
Max Gust Speed -    
Visibility 5 miles    
Events Fog    
Averages and records for this station are not official NWS values.
T = Trace of Precipitation, MM = Missing Value Source: NWS Daily Summary

Daily Weather History Graph

Daily Weather History Graph

Search for Another Location

Airport or City:

Trip Planner

Search our weather history database for the weather conditions in past years. The results will help you decide how hot, cold, wet, or windy it might be!

Date:

Astronomy

Jul. 05, 2013 Rise Set
Actual Time 5:42 AM CDT 8:30 PM CDT
Civil Twilight 5:10 AM CDT 9:02 PM CDT
Nautical Twilight 4:30 AM CDT 9:41 PM CDT
Astronomical Twilight 3:45 AM CDT 10:27 PM CDT
Moon 3:41 AM CDT (7/5) 6:25 PM CDT (7/5)
Length of Visible Light 15h 51m
Length of Day
14h 48m
Waning Crescent, 6% of the Moon is Illuminated
Jul 5
Waning Crescent
Jul 8
New
Jul 15
First Quarter
Jul 22
Full
Jul 29
Last Quarter

Hourly Weather History & Observations

Time (CDT) Temp. Heat Index Dew Point Humidity Pressure Visibility Wind Dir Wind Speed Gust Speed Precip Events Conditions
12:54 AM 66.9 °F - 63.0 °F 87% 30.03 in 5.0 mi East 5.8 mph - N/A   Clear
1:54 AM 68.0 °F - 63.0 °F 84% 30.01 in 5.0 mi East 5.8 mph - N/A   Haze
2:54 AM 66.0 °F - 64.0 °F 93% 30.02 in 3.0 mi East 6.9 mph - N/A   Clear
3:42 AM 66.2 °F - 64.4 °F 94% 30.03 in 2.5 mi East 5.8 mph - N/A   Clear
3:54 AM 66.0 °F - 64.0 °F 93% 30.02 in 2.5 mi East 5.8 mph - N/A   Clear
4:37 AM 66.2 °F - 64.4 °F 94% 30.04 in 3.0 mi Calm Calm - N/A   Clear
4:54 AM 66.9 °F - 64.9 °F 93% 30.02 in 2.5 mi NE 3.5 mph - N/A   Clear
5:42 AM 64.4 °F - 62.6 °F 94% 30.05 in 0.8 mi Calm Calm - N/A   Clear
5:54 AM 64.0 °F - 63.0 °F 96% 30.04 in 0.2 mi East 4.6 mph - N/A Fog Fog
6:15 AM 64.4 °F - 64.4 °F 100% 30.05 in 1.0 mi ESE 5.8 mph - N/A   Clear
6:54 AM 68.0 °F - 66.0 °F 93% 30.05 in 1.2 mi East 3.5 mph - N/A   Clear
7:41 AM 69.8 °F - 68.0 °F 94% 30.07 in 2.0 mi East 4.6 mph - N/A   Clear
7:54 AM 70.0 °F - 68.0 °F 93% 30.06 in 2.5 mi ESE 3.5 mph - N/A   Clear
8:08 AM 71.6 °F - 68.0 °F 88% 30.08 in 2.5 mi Calm Calm - N/A   Partly Cloudy
8:19 AM 71.6 °F - 68.0 °F 88% 30.08 in 3.0 mi Calm Calm - N/A   Partly Cloudy
8:54 AM 73.0 °F - 68.0 °F 84% 30.07 in 4.0 mi Variable 3.5 mph - N/A   Haze
9:54 AM 77.0 °F - 69.1 °F 76% 30.06 in 5.0 mi Variable 3.5 mph - N/A   Haze
10:54 AM 78.1 °F - 66.9 °F 68% 30.06 in 7.0 mi Calm Calm - N/A   Clear
11:54 AM 80.1 °F 82.1 °F 66.0 °F 62% 30.06 in 7.0 mi ESE 5.8 mph - N/A   Clear
12:54 PM 82.0 °F 84.1 °F 66.0 °F 58% 30.05 in 7.0 mi ESE 8.1 mph - N/A   Partly Cloudy
1:54 PM 84.0 °F 85.8 °F 64.9 °F 53% 30.04 in 7.0 mi ESE 10.4 mph - N/A   Clear
2:54 PM 84.0 °F 86.3 °F 66.0 °F 55% 30.02 in 8.0 mi SE 9.2 mph - N/A   Clear
3:54 PM 82.9 °F 84.6 °F 64.9 °F 54% 30.01 in 8.0 mi ESE 11.5 mph - N/A   Clear
4:54 PM 82.0 °F 83.1 °F 63.0 °F 52% 30.01 in 9.0 mi ESE 8.1 mph - N/A   Clear
5:54 PM 82.9 °F 84.0 °F 63.0 °F 51% 29.99 in 9.0 mi East 9.2 mph - N/A   Clear
6:54 PM 81.0 °F 82.5 °F 64.0 °F 56% 29.99 in 8.0 mi ESE 12.7 mph - N/A   Clear
7:54 PM 77.0 °F - 62.1 °F 60% 30.00 in 10.0 mi SSE 5.8 mph - N/A   Clear
8:54 PM 75.0 °F - 63.0 °F 66% 29.99 in 10.0 mi SE 4.6 mph - N/A   Clear
9:54 PM 71.1 °F - 64.9 °F 81% 30.01 in 8.0 mi East 5.8 mph - N/A   Clear
10:54 PM 71.1 °F - 66.0 °F 84% 30.01 in 8.0 mi East 5.8 mph - N/A   Clear
11:54 PM 71.1 °F - 66.0 °F 84% 30.01 in 8.0 mi SE 3.5 mph - N/A   Clear